Location: Batang Balui
(2.7000°N, 113.7833°E)
Time: 18:22:52
(UTC+00:00)

Envisat - Pass Details

Date: 14 December 2022
Orbit: 763 x 765 km, 98.2° (Epoch: 29 January)

Event Time Altitude Azimuth Distance (km) Brightness Sun altitude
Exits shadow 21:11:49 16° 248° (WSW) 1,933 4.7 -16.6°
Drops below altitude 10° 21:13:12 10° 234° (SW) 2,295 5.2 -16.3°
Sets 21:16:01 0° 219° (SW) 3,223 6.1 -15.7°
